Location: Buffign�court
(47.8126°N, 6.0176°E)
Time: 15:06:30
(UTC+00:00)

Resurs 01 Rocket - Pass Details

Date: 16 June 2021
Orbit: 635 x 643 km, 97.9° (Epoch: 03 August)

Event Time Altitude Azimuth Distance (km) Brightness Sun altitude
Exits shadow 21:03:40 - 198° (SSW) 2,921 4.7 -10.9°
Reaches altitude 10° 21:06:14 10° 213° (SSW) 2,019 4.0 -11.2°
Maximum altitude 21:09:46 24° 267° (W) 1,339 3.6 -11.5°
Drops below altitude 10° 21:13:20 10° 321° (NW) 2,032 5.7 -11.9°
Sets 21:15:55 0° 335° (NNW) 2,946 7.0 -12.1°
